• In Kazakhstan
  • List of Countries
  • For 7 days
  • Water Temperature
  • Weather Map
  • News
  • Weather Widgets
  • user-avatar
    Login

    Hourly Weather Sozopol

    Today, 20 January, Monday

    Time Temperature Precipitation Wind Pressure Humidity
    00:00 -1°C° 0.1 mm 8 mps 769 mmHg 90%
    01:00 -1°C° 0.1 mm 8 mps 770 mmHg 90%
    02:00 -1°C° 0 mm 7 mps 770 mmHg 91%
    03:00 -1°C° 0.1 mm 8 mps 770 mmHg 90%
    04:00 -2°C° 0.1 mm 8 mps 771 mmHg 90%
    05:00 -2°C° 0.1 mm 8 mps 771 mmHg 90%
    06:00 -2°C° 0.1 mm 8 mps 772 mmHg 87%
    07:00 -2°C° 0.1 mm 8 mps 772 mmHg 85%
    08:00 -2°C° 0 mm 7 mps 773 mmHg 85%
    09:00 -1°C° 0 mm 7 mps 773 mmHg 80%
    10:00 -1°C° 0 mm 7 mps 774 mmHg 74%
    11:00 0°C° 0 mm 7 mps 774 mmHg 68%
    12:00 0°C° 0 mm 7 mps 774 mmHg 67%
    13:00 0°C° 0 mm 7 mps 775 mmHg 65%
    14:00 0°C° 0 mm 7 mps 775 mmHg 62%
    15:00 0°C° 0 mm 7 mps 775 mmHg 64%
    16:00 -1°C° 0 mm 6 mps 775 mmHg 67%
    17:00 -2°C° 0 mm 6 mps 776 mmHg 69%
    18:00 -2°C° 0 mm 6 mps 776 mmHg 71%
    19:00 -2°C° 0 mm 6 mps 777 mmHg 73%
    20:00 -3°C° 0 mm 6 mps 777 mmHg 75%
    21:00 -2°C° 0 mm 6 mps 777 mmHg 75%
    22:00 -2°C° 0 mm 6 mps 778 mmHg 74%
    23:00 -1°C° 0 mm 5 mps 778 mmHg 74%

    Tomorrow, 21 January, Tuesday

    Time Temperature Precipitation Wind Pressure Humidity
    00:00 -2°C° 0 mm 6 mps 778 mmHg 75%
    01:00 -2°C° 0 mm 6 mps 777 mmHg 76%
    02:00 -2°C° 0 mm 6 mps 777 mmHg 77%
    03:00 -2°C° 0 mm 6 mps 777 mmHg 78%
    04:00 -3°C° 0 mm 6 mps 777 mmHg 79%
    05:00 -3°C° 0 mm 6 mps 777 mmHg 79%
    06:00 -2°C° 0 mm 5 mps 777 mmHg 80%
    07:00 -2°C° 0 mm 5 mps 777 mmHg 81%
    08:00 -2°C° 0 mm 5 mps 777 mmHg 82%
    09:00 -1°C° 0 mm 5 mps 777 mmHg 77%
    10:00 0°C° 0 mm 4 mps 777 mmHg 72%
    11:00 +1°C° 0 mm 4 mps 777 mmHg 67%
    12:00 +1°C° 0 mm 4 mps 776 mmHg 64%
    13:00 +3°C° 0 mm 3 mps 776 mmHg 62%
    14:00 +4°C° 0 mm 3 mps 775 mmHg 59%
    15:00 +4°C° 0 mm 2 mps 775 mmHg 62%
    16:00 +3°C° 0 mm 2 mps 774 mmHg 65%
    17:00 +3°C° 0 mm 2 mps 774 mmHg 68%
    18:00 +2°C° 0 mm 2 mps 774 mmHg 70%
    19:00 +1°C° 0 mm 2 mps 774 mmHg 71%
    20:00 +1°C° 0 mm 2 mps 774 mmHg 73%
    21:00 +1°C° 0 mm 2 mps 773 mmHg 74%
    22:00 0°C° 0 mm 3 mps 773 mmHg 74%
    23:00 -1°C° 0 mm 3 mps 772 mmHg 74%

    Day after tomorrow, 22 January, Wednesday

    Time Temperature Precipitation Wind Pressure Humidity
    00:00 -1°C° 0 mm 3 mps 772 mmHg 74%
    01:00 -1°C° 0 mm 3 mps 772 mmHg 73%
    02:00 -1°C° 0 mm 3 mps 772 mmHg 73%
    03:00 -1°C° 0 mm 3 mps 771 mmHg 73%
    04:00 -1°C° 0 mm 2 mps 771 mmHg 72%
    05:00 -1°C° 0 mm 2 mps 770 mmHg 72%
    06:00 -1°C° 0 mm 3 mps 770 mmHg 71%
    07:00 0°C° 0 mm 3 mps 770 mmHg 70%
    08:00 0°C° 0 mm 3 mps 770 mmHg 69%
    09:00 +2°C° 0 mm 3 mps 769 mmHg 62%
    10:00 +3°C° 0 mm 3 mps 769 mmHg 54%
    11:00 +5°C° 0 mm 3 mps 769 mmHg 47%
    12:00 +7°C° 0 mm 3 mps 768 mmHg 46%
    13:00 +8°C° 0 mm 3 mps 767 mmHg 44%
    14:00 +9°C° 0 mm 3 mps 766 mmHg 43%
    15:00 +8°C° 0 mm 3 mps 765 mmHg 48%
    16:00 +7°C° 0 mm 3 mps 765 mmHg 54%
    17:00 +4°C° 0 mm 3 mps 764 mmHg 59%
    18:00 +4°C° 0 mm 3 mps 764 mmHg 60%
    19:00 +3°C° 0 mm 4 mps 763 mmHg 60%
    20:00 +1°C° 0 mm 4 mps 763 mmHg 61%
    21:00 +1°C° 0 mm 4 mps 763 mmHg 61%
    22:00 +1°C° 0 mm 4 mps 762 mmHg 61%
    23:00 +1°C° 0 mm 4 mps 762 mmHg 61%

    23 January, Thursday

    Time Temperature Precipitation Wind Pressure Humidity
    00:00 +1°C° 0 mm 4 mps 762 mmHg 61%
    01:00 0°C° 0 mm 4 mps 762 mmHg 60%
    02:00 0°C° 0 mm 4 mps 762 mmHg 59%
    03:00 0°C° 0 mm 4 mps 762 mmHg 60%
    04:00 0°C° 0 mm 4 mps 763 mmHg 61%
    05:00 0°C° 0 mm 5 mps 763 mmHg 62%
    06:00 0°C° 0 mm 5 mps 764 mmHg 64%
    07:00 0°C° 0 mm 5 mps 765 mmHg 66%
    08:00 -1°C° 0 mm 6 mps 766 mmHg 68%
    09:00 +1°C° 0 mm 6 mps 766 mmHg 64%
    10:00 +2°C° 0 mm 6 mps 767 mmHg 59%
    11:00 +3°C° 0 mm 6 mps 767 mmHg 55%
    12:00 +4°C° 0 mm 6 mps 767 mmHg 52%
    13:00 +5°C° 0 mm 6 mps 767 mmHg 49%
    14:00 +5°C° 0 mm 6 mps 767 mmHg 46%
    15:00 +5°C° 0 mm 5 mps 768 mmHg 48%
    16:00 +5°C° 0 mm 4 mps 768 mmHg 51%
    17:00 +4°C° 0 mm 4 mps 768 mmHg 54%
    18:00 +3°C° 0 mm 4 mps 768 mmHg 58%
    19:00 +1°C° 0 mm 4 mps 769 mmHg 62%
    20:00 +1°C° 0 mm 4 mps 769 mmHg 66%
    21:00 0°C° 0 mm 4 mps 770 mmHg 68%
    22:00 0°C° 0 mm 4 mps 770 mmHg 70%
    23:00 0°C° 0 mm 4 mps 771 mmHg 72%

    24 January, Friday

    Time Temperature Precipitation Wind Pressure Humidity
    00:00 -1°C° 0 mm 4 mps 771 mmHg 73%
    01:00 -1°C° 0 mm 4 mps 771 mmHg 74%
    02:00 -1°C° 0 mm 4 mps 771 mmHg 75%
    03:00 -1°C° 0 mm 3 mps 771 mmHg 74%
    04:00 -1°C° 0 mm 3 mps 771 mmHg 73%
    05:00 -1°C° 0 mm 2 mps 771 mmHg 72%
    06:00 -1°C° 0 mm 2 mps 772 mmHg 72%
    07:00 -1°C° 0 mm 2 mps 772 mmHg 71%
    08:00 -1°C° 0 mm 2 mps 772 mmHg 71%
    09:00 +3°C° 0 mm 1 mps 772 mmHg 64%
    10:00 +4°C° 0 mm 1 mps 772 mmHg 57%
    11:00 +6°C° 0 mm 1 mps 772 mmHg 50%
    12:00 +6°C° 0 mm 1 mps 772 mmHg 48%
    13:00 +7°C° 0 mm 1 mps 771 mmHg 46%
    14:00 +8°C° 0 mm 1 mps 771 mmHg 44%
    15:00 +6°C° 0 mm 2 mps 770 mmHg 50%
    16:00 +5°C° 0 mm 2 mps 770 mmHg 57%
    17:00 +3°C° 0 mm 3 mps 770 mmHg 63%
    18:00 +2°C° 0 mm 3 mps 770 mmHg 66%
    19:00 +2°C° 0 mm 3 mps 770 mmHg 69%
    20:00 0°C° 0 mm 4 mps 770 mmHg 72%
    21:00 +1°C° 0 mm 3 mps 769 mmHg 70%
    22:00 0°C° 0 mm 3 mps 769 mmHg 69%
    23:00 0°C° 0 mm 3 mps 769 mmHg 68%

    25 January, Saturday

    Time Temperature Precipitation Wind Pressure Humidity
    00:00 0°C° 0 mm 3 mps 769 mmHg 69%
    01:00 0°C° 0 mm 3 mps 768 mmHg 70%
    02:00 +1°C° 0 mm 2 mps 768 mmHg 72%
    03:00 +1°C° 0 mm 2 mps 767 mmHg 73%
    04:00 +1°C° 0 mm 2 mps 767 mmHg 74%
    05:00 +1°C° 0 mm 2 mps 767 mmHg 75%
    06:00 0°C° 0 mm 3 mps 767 mmHg 76%
    07:00 0°C° 0 mm 3 mps 767 mmHg 77%
    08:00 0°C° 0 mm 3 mps 766 mmHg 77%
    09:00 +2°C° 0 mm 3 mps 766 mmHg 72%
    10:00 +4°C° 0 mm 3 mps 766 mmHg 67%
    11:00 +6°C° 0 mm 4 mps 766 mmHg 62%
    12:00 +7°C° 0 mm 4 mps 766 mmHg 61%
    13:00 +7°C° 0 mm 4 mps 765 mmHg 61%
    14:00 +8°C° 0 mm 4 mps 765 mmHg 60%
    15:00 +8°C° 0 mm 3 mps 765 mmHg 66%
    16:00 +7°C° 0 mm 3 mps 765 mmHg 72%
    17:00 +7°C° 0 mm 2 mps 765 mmHg 78%
    18:00 +5°C° 0 mm 3 mps 764 mmHg 80%
    19:00 +4°C° 0 mm 3 mps 764 mmHg 83%
    20:00 +4°C° 0 mm 3 mps 764 mmHg 85%
    21:00 +4°C° 0 mm 3 mps 764 mmHg 85%
    22:00 +4°C° 0 mm 3 mps 765 mmHg 85%
    23:00 +3°C° 0 mm 3 mps 765 mmHg 85%
    Show more